Location: Nairn
(57.5833°N, 3.8667°W)
Time: 15:49:21
(UTC+00:00)

Vanguard 1 - Pass Details

Date: 27 November 2020
Orbit: 649 x 3834 km, 34.3° (Epoch: 14 January)

Event Time Altitude Azimuth Distance (km) Brightness Sun altitude
Rises 07:53:50 0° 233° (SW) 4,255 13.1 -4.2°
Reaches altitude 10° 07:57:10 10° 217° (SW) 3,685 13.0 -3.9°
Maximum altitude 08:04:05 21° 173° (S) 3,653 13.6 -3.1°
Drops below altitude 10° 08:14:05 10° 132° (SE) 5,547 16.1 -2.0°
Sets 08:20:53 0° 120° (ESE) 7,133 16.9 -1.3°
